Home > Weather > Linz > Past weeks

Flag for Austria Past Weather in Linz, Upper Austria, Austria — Yesterday and Last 2 Weeks

Now
82 °F

Passing clouds.


Feels Like: 82 °F
Forecast: 60 / 84 °F
Wind: 6 mph from North

Location: Linz / Hoersching-Flughafen

Current Time: Jul 1, 2016 at 7:10:50 PM

Latest Report: Jul 1, 2016 at 6:20 PM


Visibility: N/A

Pressure: 30.01 "Hg

Humidity: 42%

Dew Point: 57 °F

Location of LinzLocation

Past Weather in Linz — Graph

°F

Linz Temperature Yesterday

Maximum temperature yesterday: 77 °F (at 1:50 PM)
Minimum temperature yesterday: 63 °F (at 11:50 PM)
Average temperature yesterday: 70 °F

High & Low Weather Summary for the Past Weeks

 TemperatureHumidityPressure
High91 °F (Jun 24, 2:20 PM)100% (Jun 21, 12:20 AM)30.30 "Hg (Jun 21, 12:20 AM)
Low54 °F (Jun 18, 4:50 AM)32% (Jun 24, 4:50 PM)29.50 "Hg (Jun 16, 5:20 PM)
Average68 °F72%30.06 "Hg
* Reported Jun 16 5:20 PM — Jul 1 5:50 PM, Linz, Weather by CustomWeather, © 2016

Note: Actual official high and low records may vary slightly from our data, if they occured in-between our weather recording intervals... More about our weather records

Advertising

Linz Weather History for the Previous 24 Hours

Scroll right to see more
 ConditionsComfort  
Time TempWeatherWind HumidityBarometerVisibility
5:50 PM
Fri, Jul 1
82 °FPassing clouds.5 mph42%30.01 "HgN/A
5:20 PM82 °FPassing clouds.3 mph42%30.01 "HgN/A
4:50 PM82 °FPassing clouds.5 mph45%30.04 "HgN/A
4:20 PM82 °FPassing clouds.5 mph45%30.04 "HgN/A
3:50 PM82 °FPassing clouds.3 mph45%30.04 "HgN/A
3:20 PM82 °FPassing clouds.6 mph48%30.04 "HgN/A
2:50 PM81 °FPassing clouds.3 mph51%30.07 "HgN/A
2:20 PM81 °FPassing clouds.3 mph48%30.07 "HgN/A
1:50 PM81 °FPassing clouds.6 mph51%30.07 "HgN/A
1:20 PM79 °FPassing clouds.3 mph54%30.07 "HgN/A
12:50 PM79 °FPassing clouds.5 mph54%30.09 "HgN/A
12:20 PM77 °FPassing clouds.3 mph61%30.09 "HgN/A
11:50 AM77 °FPassing clouds.6 mph57%30.09 "HgN/A
11:20 AM75 °FPassing clouds.3 mph61%30.09 "HgN/A
10:50 AM73 °FPassing clouds.2 mph69%30.09 "HgN/A
10:20 AM73 °FPassing clouds.3 mph69%30.09 "HgN/A
9:50 AM70 °FPassing clouds.3 mph73%30.12 "HgN/A
9:20 AM70 °FPassing clouds.3 mph78%30.09 "HgN/A
8:50 AM68 °FPartly sunny.2 mph83%30.09 "HgN/A
8:20 AM66 °FPartly sunny.2 mph88%30.09 "HgN/A
7:50 AM66 °FPartly sunny.2 mph83%30.09 "HgN/A
7:20 AM64 °FPartly sunny.2 mph88%30.09 "HgN/A
6:50 AM63 °FPartly sunny.1 mph94%30.09 "HgN/A
6:20 AM61 °FPartly sunny.2 mph94%30.09 "HgN/A
5:50 AM61 °FPassing clouds.2 mph94%30.09 "HgN/A
5:20 AM61 °FPassing clouds.2 mph94%30.07 "HgN/A
4:50 AM61 °FPassing clouds.5 mph94%30.07 "HgN/A
4:20 AM61 °FPassing clouds.1 mph94%30.07 "HgN/A
3:50 AM61 °FPassing clouds.2 mph94%30.07 "HgN/A
3:20 AM61 °FPassing clouds.3 mph94%30.07 "HgN/A
2:50 AM63 °FPassing clouds.2 mph88%30.07 "HgN/A
2:20 AM61 °FPassing clouds.3 mph94%30.07 "HgN/A
1:50 AM63 °FPassing clouds.5 mph94%30.07 "HgN/A
1:20 AM63 °FPassing clouds.1 mph94%30.07 "HgN/A
12:50 AM63 °FPassing clouds.1 mph94%30.07 "HgN/A
12:20 AM63 °FPassing clouds.2 mph94%30.07 "HgN/A
11:50 PM
Thu, Jun 30
63 °FPassing clouds.2 mph94%30.07 "HgN/A
11:20 PM64 °FPassing clouds.1 mph88%30.04 "HgN/A
10:50 PM66 °FMild.1 mph83%30.04 "HgN/A
10:20 PM64 °FMild.2 mph88%30.04 "HgN/A
9:50 PM66 °FMild.5 mph83%30.04 "HgN/A
9:20 PM68 °FMild.2 mph78%30.04 "HgN/A
8:50 PM70 °FMild.5 mph69%30.04 "HgN/A
8:20 PM72 °FPassing clouds.3 mph65%30.04 "HgN/A
7:50 PM72 °FBroken clouds.5 mph65%30.04 "HgN/A
7:20 PM72 °FBroken clouds.8 mph69%30.01 "HgN/A
Weather by CustomWeather, © 2016

See weather overviewHow to use our weather pages